DAL1453 KIND-KATL

Flight info

Callsign DAL1453
Flight time 0h 58m
Altitude 35000
Route DAWNN1 MYS HITMN NEWBB IHAVE MTHEW CHPPR1
Aircraft B738/M-VGDW/C

Departure

Time 2026-05-01 12:38
Airport Indianapolis International Airport (KIND)

Arrival

Time 2026-05-01 13:37
Airport Hartsfield Jackson Atlanta International Airport (KATL)
Time Latitude Longitude Altitude Speed Heading
2026-05-01 12:30 39.71452 -86.29489 779 ft 0 kts 325°
2026-05-01 12:31 39.71449 -86.29487 779 ft 2 kts 326°
2026-05-01 12:31 39.71437 -86.29476 780 ft 2 kts 325°
2026-05-01 12:31 39.71424 -86.29465 780 ft 2 kts 328°
2026-05-01 12:32 39.71410 -86.29459 780 ft 2 kts
2026-05-01 12:32 39.71390 -86.29469 780 ft 1 kts 40°
2026-05-01 12:32 39.71387 -86.29472 780 ft 0 kts 37°
2026-05-01 12:34 39.71392 -86.29466 780 ft 5 kts 44°
2026-05-01 12:34 39.71408 -86.29371 781 ft 11 kts 83°
2026-05-01 12:34 39.71444 -86.29256 782 ft 16 kts 51°
2026-05-01 12:35 39.71524 -86.29139 783 ft 17 kts 48°
2026-05-01 12:35 39.71601 -86.29012 784 ft 17 kts 50°
2026-05-01 12:35 39.71630 -86.28885 785 ft 14 kts 118°
2026-05-01 12:35 39.71582 -86.28785 787 ft 11 kts 87°
2026-05-01 12:36 39.71644 -86.28679 786 ft 20 kts 43°
2026-05-01 12:36 39.71740 -86.28556 788 ft 18 kts 45°
2026-05-01 12:36 39.71825 -86.28445 789 ft 18 kts 45°
2026-05-01 12:36 39.71925 -86.28321 789 ft 21 kts 43°
2026-05-01 12:37 39.72032 -86.28188 790 ft 20 kts 44°
2026-05-01 12:37 39.72048 -86.28069 790 ft 14 kts 129°
2026-05-01 12:37 39.71975 -86.27991 789 ft 13 kts 178°
2026-05-01 12:37 39.71891 -86.28063 789 ft 26 kts 225°
2026-05-01 12:38 39.71553 -86.28490 789 ft 106 kts 225°
2026-05-01 12:38 39.70859 -86.29378 805 ft 169 kts 227°
2026-05-01 12:38 39.69981 -86.30531 1395 ft 186 kts 231°
2026-05-01 12:38 39.69075 -86.31771 2148 ft 200 kts 232°
2026-05-01 12:39 39.68087 -86.33126 2534 ft 217 kts 232°
2026-05-01 12:39 39.67017 -86.34627 2277 ft 234 kts 232°
2026-05-01 12:39 39.65942 -86.36142 2240 ft 231 kts 232°
2026-05-01 12:39 39.64766 -86.37698 1895 ft 244 kts 227°
2026-05-01 12:40 39.63448 -86.39120 1915 ft 256 kts 221°
2026-05-01 12:40 39.62053 -86.40359 2189 ft 233 kts 217°
2026-05-01 12:40 39.60424 -86.41102 2527 ft 263 kts 187°
2026-05-01 12:40 39.58606 -86.40851 3421 ft 273 kts 169°
2026-05-01 12:41 39.56768 -86.40188 4522 ft 277 kts 166°
2026-05-01 12:41 39.54953 -86.39439 5598 ft 279 kts 166°
2026-05-01 12:41 39.53119 -86.38669 6692 ft 280 kts 166°
2026-05-01 12:41 39.51288 -86.37911 7721 ft 282 kts 168°
2026-05-01 12:42 39.49411 -86.37144 8761 ft 283 kts 169°
2026-05-01 12:42 39.47534 -86.36384 9684 ft 286 kts 169°
2026-05-01 12:42 39.45635 -86.35616 10559 ft 290 kts 169°
2026-05-01 12:42 39.43731 -86.34847 11392 ft 293 kts 170°
2026-05-01 12:43 39.41756 -86.34052 12202 ft 297 kts 171°
2026-05-01 12:43 39.39790 -86.33262 12964 ft 302 kts 171°
2026-05-01 12:43 39.37788 -86.32455 13676 ft 307 kts 171°
2026-05-01 12:43 39.35725 -86.31673 14405 ft 308 kts 176°
2026-05-01 12:44 39.33616 -86.31205 15070 ft 307 kts 183°
2026-05-01 12:44 39.31498 -86.30969 15746 ft 309 kts 186°
2026-05-01 12:44 39.27166 -86.30614 17075 ft 317 kts 186°
2026-05-01 12:45 39.22733 -86.30168 18349 ft 325 kts 185°
2026-05-01 12:45 39.20461 -86.29916 18948 ft 328 kts 185°
2026-05-01 12:45 39.18184 -86.29658 19530 ft 332 kts 185°
2026-05-01 12:46 39.15899 -86.29401 20080 ft 335 kts 186°
2026-05-01 12:46 39.13549 -86.29140 20606 ft 339 kts 186°
2026-05-01 12:46 39.11197 -86.28880 21098 ft 343 kts 186°
2026-05-01 12:46 39.08819 -86.28619 21581 ft 347 kts 186°
2026-05-01 12:47 39.06413 -86.28350 22106 ft 349 kts 186°
2026-05-01 12:47 39.03979 -86.28079 22609 ft 351 kts 186°
2026-05-01 12:47 39.01569 -86.27808 23145 ft 351 kts 187°
2026-05-01 12:47 38.99126 -86.27537 23557 ft 355 kts 187°
2026-05-01 12:48 38.96650 -86.27267 23952 ft 359 kts 187°
2026-05-01 12:48 38.94138 -86.26993 24284 ft 364 kts 188°
2026-05-01 12:48 38.91614 -86.26712 24714 ft 365 kts 188°
2026-05-01 12:48 38.89119 -86.26432 25165 ft 364 kts 188°
2026-05-01 12:49 38.86570 -86.26146 25636 ft 363 kts 189°
2026-05-01 12:49 38.84087 -86.25866 26144 ft 360 kts 190°
2026-05-01 12:49 38.81588 -86.25584 26650 ft 357 kts 191°
2026-05-01 12:49 38.79154 -86.25307 27183 ft 352 kts 192°
2026-05-01 12:50 38.76695 -86.25028 27608 ft 351 kts 192°
2026-05-01 12:50 38.74232 -86.24769 27781 ft 358 kts 192°
2026-05-01 12:50 38.71757 -86.24512 28067 ft 361 kts 192°
2026-05-01 12:50 38.69207 -86.24251 28174 ft 370 kts 193°
2026-05-01 12:51 38.63949 -86.23711 28347 ft 389 kts 192°
2026-05-01 12:51 38.58450 -86.23128 28520 ft 408 kts 191°
2026-05-01 12:52 38.55615 -86.22876 28679 ft 410 kts 193°
2026-05-01 12:52 38.50021 -86.22845 29809 ft 391 kts 198°
2026-05-01 12:52 38.47354 -86.22920 30439 ft 383 kts 200°
2026-05-01 12:53 38.42009 -86.23133 30934 ft 388 kts 200°
2026-05-01 12:53 38.39283 -86.23243 31205 ft 391 kts 199°
2026-05-01 12:54 38.33773 -86.23435 31455 ft 404 kts 199°
2026-05-01 12:54 38.28073 -86.23596 31770 ft 413 kts 198°
2026-05-01 12:54 38.25203 -86.23662 32066 ft 414 kts 199°
2026-05-01 12:55 38.19507 -86.23768 32908 ft 408 kts 199°
2026-05-01 12:55 38.16697 -86.23815 33369 ft 403 kts 199°
2026-05-01 12:55 38.13866 -86.23873 33602 ft 404 kts 199°
2026-05-01 12:56 38.11083 -86.23939 33819 ft 405 kts 199°
2026-05-01 12:56 38.08272 -86.24010 34048 ft 406 kts 199°
2026-05-01 12:56 38.05438 -86.24083 34196 ft 408 kts 199°
2026-05-01 12:56 38.02589 -86.24153 34456 ft 408 kts 199°
2026-05-01 12:57 37.99754 -86.24218 34703 ft 408 kts 199°
2026-05-01 12:57 37.94050 -86.24353 35013 ft 412 kts 199°
2026-05-01 12:57 37.91195 -86.24428 35025 ft 418 kts 199°
2026-05-01 12:58 37.85279 -86.24689 35026 ft 426 kts 200°
2026-05-01 12:59 37.76463 -86.25371 35023 ft 426 kts 200°
2026-05-01 12:59 37.67622 -86.26082 35028 ft 425 kts 200°
2026-05-01 13:00 37.58779 -86.26756 35025 ft 426 kts 200°
2026-05-01 13:01 37.49925 -86.27427 35026 ft 426 kts 200°
2026-05-01 13:02 37.41096 -86.28082 35026 ft 427 kts 200°
2026-05-01 13:07 36.76231 -86.32897 35032 ft 426 kts 200°
2026-05-01 13:08 36.70352 -86.33318 35028 ft 420 kts 201°
2026-05-01 13:08 36.64514 -86.33737 35032 ft 422 kts 201°
2026-05-01 13:09 36.53365 -86.34574 35046 ft 423 kts 201°
2026-05-01 13:09 36.06753 -86.37942 35019 ft 419 kts 201°
2026-05-01 13:10 35.84949 -86.39419 35033 ft 415 kts 201°
2026-05-01 13:10 35.79253 -86.39858 35032 ft 414 kts 200°
2026-05-01 13:10 35.76300 -86.39940 35029 ft 432 kts 195°
2026-05-01 13:11 35.73269 -86.39411 35029 ft 456 kts 182°
2026-05-01 13:11 35.70195 -86.38051 35035 ft 485 kts 172°
2026-05-01 13:11 35.67138 -86.36166 35031 ft 497 kts 167°
2026-05-01 13:12 35.61115 -86.31894 35030 ft 498 kts 164°
2026-05-01 13:12 35.55207 -86.27511 35031 ft 500 kts 164°
2026-05-01 13:13 35.49180 -86.23130 35029 ft 505 kts 165°
2026-05-01 13:13 35.43191 -86.18742 35030 ft 504 kts 161°
2026-05-01 13:14 35.37468 -86.13690 35029 ft 515 kts 156°
2026-05-01 13:14 35.31882 -86.08214 35034 ft 515 kts 154°
2026-05-01 13:15 35.26334 -86.02669 35035 ft 517 kts 154°
2026-05-01 13:15 35.20702 -85.97148 35030 ft 521 kts 154°
2026-05-01 13:16 35.14996 -85.91652 35031 ft 522 kts 155°
2026-05-01 13:16 35.09364 -85.86255 35031 ft 510 kts 155°
2026-05-01 13:17 34.98160 -85.75610 34773 ft 513 kts 155°
2026-05-01 13:18 34.92528 -85.70265 33519 ft 513 kts 155°
2026-05-01 13:18 34.89719 -85.67601 32793 ft 514 kts 154°
2026-05-01 13:18 34.86900 -85.64932 32014 ft 515 kts 154°
2026-05-01 13:18 34.84063 -85.62251 31183 ft 517 kts 153°
2026-05-01 13:19 34.81211 -85.59559 30324 ft 520 kts 153°
2026-05-01 13:19 34.78348 -85.56862 29444 ft 522 kts 152°
2026-05-01 13:19 34.72689 -85.51504 28165 ft 516 kts 152°
2026-05-01 13:20 34.69883 -85.48843 27498 ft 513 kts 152°
2026-05-01 13:20 34.67071 -85.46184 26815 ft 510 kts 151°
2026-05-01 13:20 34.64299 -85.43566 26137 ft 508 kts 151°
2026-05-01 13:21 34.58753 -85.38337 24758 ft 504 kts 151°
2026-05-01 13:21 34.55982 -85.35731 24068 ft 501 kts 151°
2026-05-01 13:21 34.53229 -85.33145 23381 ft 499 kts 151°
2026-05-01 13:21 34.50528 -85.30610 22709 ft 496 kts 150°
2026-05-01 13:22 34.47808 -85.28061 22038 ft 493 kts 150°
2026-05-01 13:22 34.45113 -85.25538 21341 ft 491 kts 150°
2026-05-01 13:22 34.42429 -85.23027 20643 ft 489 kts 149°
2026-05-01 13:22 34.39744 -85.20518 19935 ft 486 kts 149°
2026-05-01 13:23 34.37068 -85.18018 19225 ft 483 kts 148°
2026-05-01 13:23 34.34453 -85.15574 18656 ft 467 kts 149°
2026-05-01 13:23 34.31965 -85.13235 18086 ft 448 kts 148°
2026-05-01 13:23 34.29560 -85.10975 17513 ft 431 kts 148°
2026-05-01 13:24 34.27236 -85.08798 17124 ft 421 kts 148°
2026-05-01 13:24 34.24932 -85.06654 16777 ft 411 kts 148°
2026-05-01 13:24 34.22692 -85.04574 16327 ft 404 kts 148°
2026-05-01 13:25 34.18250 -85.00499 15118 ft 402 kts 147°
2026-05-01 13:25 34.16023 -84.98441 14404 ft 395 kts 146°
2026-05-01 13:25 34.13878 -84.96442 13732 ft 382 kts 145°
2026-05-01 13:25 34.11851 -84.94528 13045 ft 372 kts 145°
2026-05-01 13:26 34.09822 -84.92595 12328 ft 362 kts 144°
2026-05-01 13:26 34.07896 -84.90756 11621 ft 354 kts 144°
2026-05-01 13:26 34.05970 -84.88924 10901 ft 347 kts 144°
2026-05-01 13:26 34.04110 -84.87157 10201 ft 340 kts 144°
2026-05-01 13:27 34.02271 -84.85500 9958 ft 321 kts 149°
2026-05-01 13:27 34.00348 -84.84292 9674 ft 307 kts 166°
2026-05-01 13:27 33.96238 -84.83711 8933 ft 294 kts 181°
2026-05-01 13:28 33.92192 -84.83482 8179 ft 290 kts 179°
2026-05-01 13:28 33.90180 -84.83304 7802 ft 288 kts 178°
2026-05-01 13:29 33.86220 -84.83398 7052 ft 283 kts 189°
2026-05-01 13:29 33.82350 -84.83997 6301 ft 280 kts 186°
2026-05-01 13:30 33.75676 -84.79890 4806 ft 275 kts 143°
2026-05-01 13:31 33.72562 -84.77248 4063 ft 271 kts 144°
2026-05-01 13:31 33.68185 -84.73692 3993 ft 245 kts 144°
2026-05-01 13:32 33.65495 -84.71185 3992 ft 244 kts 127°
2026-05-01 13:33 33.64899 -84.65376 3994 ft 239 kts 85°
2026-05-01 13:33 33.64959 -84.61478 3940 ft 221 kts 89°
2026-05-01 13:34 33.64927 -84.57817 3322 ft 215 kts 88°
2026-05-01 13:34 33.64942 -84.54524 2765 ft 182 kts 89°
2026-05-01 13:35 33.64945 -84.51771 2297 ft 154 kts 89°
2026-05-01 13:35 33.64948 -84.50517 2116 ft 148 kts 89°
2026-05-01 13:35 33.64950 -84.48045 1722 ft 149 kts 90°
2026-05-01 13:36 33.64950 -84.46832 1520 ft 145 kts 89°
2026-05-01 13:36 33.64952 -84.45620 1336 ft 144 kts 89°
2026-05-01 13:36 33.64950 -84.43242 1008 ft 137 kts 89°
2026-05-01 13:37 33.64955 -84.42264 984 ft 91 kts 90°
2026-05-01 13:37 33.64938 -84.41782 978 ft 44 kts 102°
2026-05-01 13:37 33.64843 -84.41601 977 ft 17 kts 176°
2026-05-01 13:37 33.64790 -84.41711 975 ft 16 kts 269°
2026-05-01 13:38 33.64790 -84.42020 978 ft 18 kts 270°
2026-05-01 13:38 33.64790 -84.42167 981 ft 17 kts 270°
2026-05-01 13:38 33.64790 -84.42329 985 ft 18 kts 270°
2026-05-01 13:39 33.64790 -84.42467 988 ft 15 kts 269°
2026-05-01 13:39 33.64790 -84.42606 991 ft 18 kts 270°
2026-05-01 13:39 33.64790 -84.42760 995 ft 18 kts 269°
2026-05-01 13:39 33.64740 -84.42873 999 ft 15 kts 195°
2026-05-01 13:40 33.64656 -84.42861 999 ft 11 kts 155°
2026-05-01 13:40 33.64586 -84.42826 1000 ft 9 kts 177°
2026-05-01 13:40 33.64542 -84.42899 1002 ft 15 kts 266°
2026-05-01 13:40 33.64542 -84.43049 1005 ft 20 kts 270°
2026-05-01 13:41 33.64542 -84.43239 1006 ft 23 kts 269°
2026-05-01 13:41 33.64542 -84.43424 1010 ft 20 kts 270°
2026-05-01 13:41 33.64542 -84.43587 1013 ft 18 kts 270°
2026-05-01 13:41 33.64537 -84.43734 1016 ft 16 kts 263°
2026-05-01 13:42 33.64522 -84.43849 1018 ft 11 kts 261°
2026-05-01 13:42 33.64511 -84.43935 1020 ft 10 kts 261°
2026-05-01 13:42 33.64487 -84.44033 1022 ft 11 kts 213°
2026-05-01 13:42 33.64408 -84.44044 1022 ft 11 kts 182°
2026-05-01 13:43 33.64300 -84.44049 1021 ft 17 kts 181°
2026-05-01 13:43 33.64176 -84.44049 1019 ft 18 kts 179°
2026-05-01 13:43 33.64053 -84.44048 1019 ft 17 kts 179°
2026-05-01 13:43 33.63959 -84.44059 1019 ft 10 kts 214°
2026-05-01 13:44 33.63925 -84.44121 1020 ft 7 kts 255°
2026-05-01 13:44 33.63923 -84.44167 1021 ft 4 kts 270°
2026-05-01 13:44 33.63923 -84.44190 1022 ft 0 kts 270°